カタログに戻る

SPOT 6

運用中科学SSO
NORAD 38755·PAYLOAD·🇫🇷 France

打ち上げ Sep 9, 2012 から Satish Dhawan Space Centre

Loading…

次のパス (今後24時間)

TLE

最新Source: Space-Track

元期: Sep 14, 2026, 15:42 UTC

1 38755U 12047A   26257.65477061  .00000147  00000-0  41489-4 0  9992
2 38755  98.2041 323.8781 0001615  85.8775 274.2609 14.58562644746090

AllMySatでSPOT 6をリアルタイム追跡

Download on the App Store